Location: Aciu?a
(46.2833°N, 22.4500°E)
Time: 13:38:16
(UTC+00:00)

CENTAUR R/B - Pass Details

Date: 25 October 2021
Orbit: 728 x 1459 km, 63.4° (Epoch: 26 November)

Event Time Altitude Azimuth Distance (km) Brightness Sun altitude
Rises 17:13:24 0° 313° (NW) 3,937 6.4 -19.1°
Reaches altitude 10° 17:16:28 10° 326° (NW) 3,095 5.6 -19.6°
Maximum altitude 17:22:46 27° 22° (NNE) 2,261 4.2 -20.7°
Enters shadow 17:25:48 22° 53° (NE) 2,579 4.3 -21.2°
